Volver al catálogo

TELSTAR 12

ORION 2

ActivoComunicacionesGEO
NORAD 25949·PAYLOAD·🇺🇸 United States

Lanzado Oct 19, 1999 desde Guiana Space Centre

Loading…

TLE

ActualizadoSource: Space-Track

Época: Sep 14, 2026, 12:38 UTC

1 25949U 99059A   26257.52695810 -.00000199  00000-0  00000-0 0  9999
2 25949   8.8978  61.9621 0010294 226.4186  71.9295  0.98501515 98050

Sigue TELSTAR 12 en tiempo real con AllMySat

Download on the App Store